﻿<?xml version="1.0" encoding="utf-8"?><gpx creator="Garmin Desktop App" version="1.1" xsi:schemaLocation="http://www.topografix.com/GPX/1/1 http://www.topografix.com/GPX/1/1/gpx.xsd http://www.garmin.com/xmlschemas/WaypointExtension/v1 http://www8.garmin.com/xmlschemas/WaypointExtensionv1.xsd http://www.garmin.com/xmlschemas/TrackPointExtension/v1 http://www.garmin.com/xmlschemas/TrackPointExtensionv1.xsd http://www.garmin.com/xmlschemas/GpxExtensions/v3 http://www8.garmin.com/xmlschemas/GpxExtensionsv3.xsd http://www.garmin.com/xmlschemas/ActivityExtension/v1 http://www8.garmin.com/xmlschemas/ActivityExtensionv1.xsd http://www.garmin.com/xmlschemas/AdventuresExtensions/v1 http://www8.garmin.com/xmlschemas/AdventuresExtensionv1.xsd http://www.garmin.com/xmlschemas/PressureExtension/v1 http://www.garmin.com/xmlschemas/PressureExtensionv1.xsd http://www.garmin.com/xmlschemas/TripExtensions/v1 http://www.garmin.com/xmlschemas/TripExtensionsv1.xsd http://www.garmin.com/xmlschemas/TripMetaDataExtensions/v1 http://www.garmin.com/xmlschemas/TripMetaDataExtensionsv1.xsd http://www.garmin.com/xmlschemas/ViaPointTransportationModeExtensions/v1 http://www.garmin.com/xmlschemas/ViaPointTransportationModeExtensionsv1.xsd http://www.garmin.com/xmlschemas/CreationTimeExtension/v1 http://www.garmin.com/xmlschemas/CreationTimeExtensionsv1.xsd http://www.garmin.com/xmlschemas/AccelerationExtension/v1 http://www.garmin.com/xmlschemas/AccelerationExtensionv1.xsd http://www.garmin.com/xmlschemas/PowerExtension/v1 http://www.garmin.com/xmlschemas/PowerExtensionv1.xsd http://www.garmin.com/xmlschemas/VideoExtension/v1 http://www.garmin.com/xmlschemas/VideoExtensionv1.xsd" xmlns="http://www.topografix.com/GPX/1/1" xmlns:xsi="http://www.w3.org/2001/XMLSchema-instance" xmlns:wptx1="http://www.garmin.com/xmlschemas/WaypointExtension/v1" xmlns:gpxtrx="http://www.garmin.com/xmlschemas/GpxExtensions/v3" xmlns:gpxtpx="http://www.garmin.com/xmlschemas/TrackPointExtension/v1" xmlns:gpxx="http://www.garmin.com/xmlschemas/GpxExtensions/v3" xmlns:trp="http://www.garmin.com/xmlschemas/TripExtensions/v1" xmlns:adv="http://www.garmin.com/xmlschemas/AdventuresExtensions/v1" xmlns:prs="http://www.garmin.com/xmlschemas/PressureExtension/v1" xmlns:tmd="http://www.garmin.com/xmlschemas/TripMetaDataExtensions/v1" xmlns:vptm="http://www.garmin.com/xmlschemas/ViaPointTransportationModeExtensions/v1" xmlns:ctx="http://www.garmin.com/xmlschemas/CreationTimeExtension/v1" xmlns:gpxacc="http://www.garmin.com/xmlschemas/AccelerationExtension/v1" xmlns:gpxpx="http://www.garmin.com/xmlschemas/PowerExtension/v1" xmlns:vidx1="http://www.garmin.com/xmlschemas/VideoExtension/v1">

  <metadata>
    <link href="http://www.garmin.com">
      <text>Garmin International</text>
    </link>
    <time>2026-04-22T16:55:11Z</time>
    <bounds maxlat="52.407385725528002" maxlon="8.039987068623304" minlat="52.278408268466592" minlon="7.780523495748639" />
  </metadata>

  <trk>
    <name>20260422Mettingen</name>
    <extensions>
      <gpxx:TrackExtension>
        <gpxx:DisplayColor>DarkGray</gpxx:DisplayColor>
      </gpxx:TrackExtension>
    </extensions>
    <trkseg>
      <trkpt lat="52.278408268466592" lon="8.039987068623304">
        <ele>69.44921875</ele>
        <time>2025-09-14T11:17:50Z</time>
      </trkpt>
      <trkpt lat="52.27888167835772" lon="8.038755096495152">
        <ele>71.5</ele>
        <time>2025-09-14T11:17:50Z</time>
      </trkpt>
      <trkpt lat="52.279249392449856" lon="8.038101140409708">
        <ele>70.96484375</ele>
        <time>2025-09-14T11:17:50Z</time>
      </trkpt>
      <trkpt lat="52.279669577255845" lon="8.037721775472164">
        <ele>70.109375</ele>
        <time>2025-09-14T11:17:50Z</time>
      </trkpt>
      <trkpt lat="52.28060457855463" lon="8.036946030333638">
        <ele>70.46484375</ele>
        <time>2025-09-14T11:17:50Z</time>
      </trkpt>
      <trkpt lat="52.284923773258924" lon="8.033627970144153">
        <ele>69.54296875</ele>
        <time>2025-09-14T11:17:50Z</time>
      </trkpt>
      <trkpt lat="52.285087136551738" lon="8.033530823886395">
        <ele>69.2265625</ele>
        <time>2025-09-14T11:17:50Z</time>
      </trkpt>
      <trkpt lat="52.285563731566072" lon="8.031931472942233">
        <ele>71.98046875</ele>
        <time>2025-09-14T11:17:50Z</time>
      </trkpt>
      <trkpt lat="52.286495380103588" lon="8.027865495532751">
        <ele>65.953125</ele>
        <time>2025-09-14T11:17:50Z</time>
      </trkpt>
      <trkpt lat="52.286615408957005" lon="8.024408295750618">
        <ele>67.21875</ele>
        <time>2025-09-14T11:17:50Z</time>
      </trkpt>
      <trkpt lat="52.28703442029655" lon="8.020571982488036">
        <ele>70.11328125</ele>
        <time>2025-09-14T11:17:50Z</time>
      </trkpt>
      <trkpt lat="52.287511685863137" lon="8.015718441456556">
        <ele>70.890625</ele>
        <time>2025-09-14T11:17:50Z</time>
      </trkpt>
      <trkpt lat="52.28802046738565" lon="8.011880703270435">
        <ele>70.38671875</ele>
        <time>2025-09-14T11:17:50Z</time>
      </trkpt>
      <trkpt lat="52.289995579048991" lon="8.005309877917171">
        <ele>72.07421875</ele>
        <time>2025-09-14T11:17:50Z</time>
      </trkpt>
      <trkpt lat="52.290450800210238" lon="8.003082219511271">
        <ele>70.9296875</ele>
        <time>2025-09-14T11:17:50Z</time>
      </trkpt>
      <trkpt lat="52.290678368881345" lon="8.001968432217836">
        <ele>76.62890625</ele>
        <time>2025-09-14T11:17:50Z</time>
      </trkpt>
      <trkpt lat="52.290792195126414" lon="8.001411370933056">
        <ele>78.546875</ele>
        <time>2025-09-14T11:17:50Z</time>
      </trkpt>
      <trkpt lat="52.290877606719732" lon="8.000993700698018">
        <ele>79.34375</ele>
        <time>2025-09-14T11:17:50Z</time>
      </trkpt>
      <trkpt lat="52.291574981063604" lon="7.996399076655507">
        <ele>69.0390625</ele>
        <time>2025-09-14T11:17:50Z</time>
      </trkpt>
      <trkpt lat="52.292264979332685" lon="7.991179833188653">
        <ele>71.05859375</ele>
        <time>2025-09-14T11:17:50Z</time>
      </trkpt>
      <trkpt lat="52.292489195242524" lon="7.990939104929566">
        <ele>69.9765625</ele>
        <time>2025-09-14T11:17:50Z</time>
      </trkpt>
      <trkpt lat="52.292954893782735" lon="7.985960505902767">
        <ele>62.5625</ele>
        <time>2025-09-14T11:17:50Z</time>
      </trkpt>
      <trkpt lat="52.292899405583739" lon="7.983307465910912">
        <ele>65.96484375</ele>
        <time>2025-09-14T11:17:50Z</time>
      </trkpt>
      <trkpt lat="52.292913571000099" lon="7.98238436691463">
        <ele>67.6875</ele>
        <time>2025-09-14T11:17:50Z</time>
      </trkpt>
      <trkpt lat="52.293363511562347" lon="7.981255324557424">
        <ele>71.15234375</ele>
        <time>2025-09-14T11:17:50Z</time>
      </trkpt>
      <trkpt lat="52.294734623283148" lon="7.983475103974342">
        <ele>62.1640625</ele>
        <time>2025-09-14T11:17:50Z</time>
      </trkpt>
      <trkpt lat="52.295540878549218" lon="7.984808161854744">
        <ele>65.0703125</ele>
        <time>2025-09-14T11:17:50Z</time>
      </trkpt>
      <trkpt lat="52.296143537387252" lon="7.985346028581262">
        <ele>63.9921875</ele>
        <time>2025-09-14T11:17:50Z</time>
      </trkpt>
      <trkpt lat="52.296318802982569" lon="7.985571920871735">
        <ele>64.125</ele>
        <time>2025-09-14T11:17:50Z</time>
      </trkpt>
      <trkpt lat="52.29645031504333" lon="7.985226418823004">
        <ele>63.2578125</ele>
        <time>2025-09-14T11:17:50Z</time>
      </trkpt>
      <trkpt lat="52.300065094605088" lon="7.972233295440674">
        <ele>67.5703125</ele>
        <time>2025-09-14T11:17:50Z</time>
      </trkpt>
      <trkpt lat="52.301882626488805" lon="7.965396512299776">
        <ele>73.75390625</ele>
        <time>2025-09-14T11:17:50Z</time>
      </trkpt>
      <trkpt lat="52.302670609205961" lon="7.9623041767627">
        <ele>64.6484375</ele>
        <time>2025-09-14T11:17:50Z</time>
      </trkpt>
      <trkpt lat="52.303085597231984" lon="7.960843881592155">
        <ele>62.06640625</ele>
        <time>2025-09-14T11:17:50Z</time>
      </trkpt>
      <trkpt lat="52.303752461448312" lon="7.959400769323111">
        <ele>59.5859375</ele>
        <time>2025-09-14T11:17:50Z</time>
      </trkpt>
      <trkpt lat="52.305524395778775" lon="7.957967380061746">
        <ele>60.25</ele>
        <time>2025-09-14T11:17:51Z</time>
      </trkpt>
      <trkpt lat="52.305488772690296" lon="7.949112569913268">
        <ele>61.72265625</ele>
        <time>2025-09-14T11:17:51Z</time>
      </trkpt>
      <trkpt lat="52.307363385334611" lon="7.950626090168953">
        <ele>60.0703125</ele>
        <time>2025-09-14T11:17:51Z</time>
      </trkpt>
      <trkpt lat="52.308778585866094" lon="7.950408831238747">
        <ele>60.0703125</ele>
        <time>2025-09-14T11:17:52Z</time>
      </trkpt>
      <trkpt lat="52.310036374256015" lon="7.950775204226375">
        <ele>58.671875</ele>
        <time>2025-09-14T11:17:54Z</time>
      </trkpt>
      <trkpt lat="52.312364615499973" lon="7.947158999741077">
        <ele>63.84765625</ele>
        <time>2025-09-14T11:17:55Z</time>
      </trkpt>
      <trkpt lat="52.312583299353719" lon="7.945748660713434">
        <ele>60.28125</ele>
        <time>2025-09-14T11:17:56Z</time>
      </trkpt>
      <trkpt lat="52.312644571065903" lon="7.945342641323805">
        <ele>59.0546875</ele>
        <time>2025-09-14T11:17:58Z</time>
      </trkpt>
      <trkpt lat="52.313215797767043" lon="7.943272730335593">
        <ele>56.6875</ele>
        <time>2025-09-14T11:17:58Z</time>
      </trkpt>
      <trkpt lat="52.313768919557333" lon="7.942212000489235">
        <ele>60.015625</ele>
        <time>2025-09-14T11:17:59Z</time>
      </trkpt>
      <trkpt lat="52.313786940649152" lon="7.941202819347382">
        <ele>61.7421875</ele>
        <time>2025-09-14T11:17:59Z</time>
      </trkpt>
      <trkpt lat="52.314630830660462" lon="7.94130876660347">
        <ele>60.08203125</ele>
        <time>2025-09-14T11:18:00Z</time>
      </trkpt>
      <trkpt lat="52.315422333776951" lon="7.941620741039515">
        <ele>56.7890625</ele>
        <time>2025-09-14T11:18:01Z</time>
      </trkpt>
      <trkpt lat="52.316098837181926" lon="7.941766334697604">
        <ele>56.61328125</ele>
        <time>2025-09-14T11:18:11Z</time>
      </trkpt>
      <trkpt lat="52.316782716661692" lon="7.941620741039515">
        <ele>59.39453125</ele>
        <time>2025-09-14T11:18:21Z</time>
      </trkpt>
      <trkpt lat="52.317342460155487" lon="7.941319495439529">
        <ele>63.7421875</ele>
        <time>2025-09-14T11:18:31Z</time>
      </trkpt>
      <trkpt lat="52.317915530875325" lon="7.940984638407826">
        <ele>62.7578125</ele>
        <time>2025-09-14T11:18:42Z</time>
      </trkpt>
      <trkpt lat="52.318188613280654" lon="7.940914062783122">
        <ele>61.7890625</ele>
        <time>2025-09-14T11:18:47Z</time>
      </trkpt>
      <trkpt lat="52.318787081167102" lon="7.940869219601154">
        <ele>59.08203125</ele>
        <time>2025-09-14T11:18:52Z</time>
      </trkpt>
      <trkpt lat="52.319039376452565" lon="7.940595801919699">
        <ele>58.9609375</ele>
        <time>2025-09-14T11:19:03Z</time>
      </trkpt>
      <trkpt lat="52.319562071934342" lon="7.940097665414214">
        <ele>59.64453125</ele>
        <time>2025-09-14T11:19:13Z</time>
      </trkpt>
      <trkpt lat="52.320103961974382" lon="7.939559379592538">
        <ele>61.17578125</ele>
        <time>2025-09-14T11:19:23Z</time>
      </trkpt>
      <trkpt lat="52.320684660226107" lon="7.938984297215939">
        <ele>60.69140625</ele>
        <time>2025-09-14T11:19:34Z</time>
      </trkpt>
      <trkpt lat="52.321277596056461" lon="7.938380632549524">
        <ele>59.9140625</ele>
        <time>2025-09-14T11:19:45Z</time>
      </trkpt>
      <trkpt lat="52.321823006495833" lon="7.937698094174266">
        <ele>60.4921875</ele>
        <time>2025-09-14T11:19:56Z</time>
      </trkpt>
      <trkpt lat="52.322382163256407" lon="7.937007425352931">
        <ele>59.74609375</ele>
        <time>2025-09-14T11:20:07Z</time>
      </trkpt>
      <trkpt lat="52.322904607281089" lon="7.936354810371995">
        <ele>58.94140625</ele>
        <time>2025-09-14T11:20:17Z</time>
      </trkpt>
      <trkpt lat="52.323493184521794" lon="7.935617538169026">
        <ele>60.1875</ele>
        <time>2025-09-14T11:20:28Z</time>
      </trkpt>
      <trkpt lat="52.324048737064004" lon="7.934912536293268">
        <ele>60.703125</ele>
        <time>2025-09-14T11:20:39Z</time>
      </trkpt>
      <trkpt lat="52.324502365663648" lon="7.934605004265904">
        <ele>63.2890625</ele>
        <time>2025-09-14T11:20:50Z</time>
      </trkpt>
      <trkpt lat="52.325037131085992" lon="7.934811199083924">
        <ele>69.22265625</ele>
        <time>2025-09-14T11:21:00Z</time>
      </trkpt>
      <trkpt lat="52.325504086911678" lon="7.93403796851635">
        <ele>72.671875</ele>
        <time>2025-09-14T11:21:11Z</time>
      </trkpt>
      <trkpt lat="52.325835507363081" lon="7.933188630267978">
        <ele>70.9765625</ele>
        <time>2025-09-14T11:21:21Z</time>
      </trkpt>
      <trkpt lat="52.326200036332011" lon="7.932332921773195">
        <ele>69.3359375</ele>
        <time>2025-09-14T11:21:31Z</time>
      </trkpt>
      <trkpt lat="52.326613180339336" lon="7.931523565202951">
        <ele>69.5390625</ele>
        <time>2025-09-14T11:21:42Z</time>
      </trkpt>
      <trkpt lat="52.32720703817904" lon="7.930926186963916">
        <ele>70.38671875</ele>
        <time>2025-09-14T11:21:53Z</time>
      </trkpt>
      <trkpt lat="52.327792765572667" lon="7.930430816486478">
        <ele>71.35546875</ele>
        <time>2025-09-14T11:22:04Z</time>
      </trkpt>
      <trkpt lat="52.328310180455446" lon="7.929994203150272">
        <ele>70.41796875</ele>
        <time>2025-09-14T11:22:14Z</time>
      </trkpt>
      <trkpt lat="52.328904960304499" lon="7.929464215412736">
        <ele>68.6640625</ele>
        <time>2025-09-14T11:22:25Z</time>
      </trkpt>
      <trkpt lat="52.329246019944549" lon="7.929119635373354">
        <ele>68.57421875</ele>
        <time>2025-09-14T11:22:36Z</time>
      </trkpt>
      <trkpt lat="52.329087601974607" lon="7.92858436703682">
        <ele>64.46875</ele>
        <time>2025-09-14T11:22:46Z</time>
      </trkpt>
      <trkpt lat="52.329076705500484" lon="7.927366560325027">
        <ele>65.0859375</ele>
        <time>2025-09-14T11:22:57Z</time>
      </trkpt>
      <trkpt lat="52.329072179272771" lon="7.926382021978498">
        <ele>67.90234375</ele>
        <time>2025-09-14T11:23:07Z</time>
      </trkpt>
      <trkpt lat="52.328879563137889" lon="7.925392035394907">
        <ele>67.96875</ele>
        <time>2025-09-14T11:23:17Z</time>
      </trkpt>
      <trkpt lat="52.328956006094813" lon="7.924382518976927">
        <ele>64.140625</ele>
        <time>2025-09-14T11:23:27Z</time>
      </trkpt>
      <trkpt lat="52.329177539795637" lon="7.92341323569417">
        <ele>64.453125</ele>
        <time>2025-09-14T11:23:38Z</time>
      </trkpt>
      <trkpt lat="52.329361103475094" lon="7.922394834458828">
        <ele>66.87890625</ele>
        <time>2025-09-14T11:23:49Z</time>
      </trkpt>
      <trkpt lat="52.329446095973253" lon="7.921384731307626">
        <ele>70.96484375</ele>
        <time>2025-09-14T11:23:59Z</time>
      </trkpt>
      <trkpt lat="52.329546930268407" lon="7.920338585972786">
        <ele>71.8203125</ele>
        <time>2025-09-14T11:24:10Z</time>
      </trkpt>
      <trkpt lat="52.329603591933846" lon="7.919257488101721">
        <ele>71.61328125</ele>
        <time>2025-09-14T11:24:21Z</time>
      </trkpt>
      <trkpt lat="52.329672407358885" lon="7.918299017474055">
        <ele>70.90625</ele>
        <time>2025-09-14T11:24:31Z</time>
      </trkpt>
      <trkpt lat="52.329703336581588" lon="7.917230660095811">
        <ele>68.640625</ele>
        <time>2025-09-14T11:24:42Z</time>
      </trkpt>
      <trkpt lat="52.329768883064389" lon="7.916109664365649">
        <ele>67.11328125</ele>
        <time>2025-09-14T11:24:53Z</time>
      </trkpt>
      <trkpt lat="52.329823197796941" lon="7.914943741634488">
        <ele>68.35546875</ele>
        <time>2025-09-14T11:25:04Z</time>
      </trkpt>
      <trkpt lat="52.329976418986917" lon="7.913749068975449">
        <ele>65.33984375</ele>
        <time>2025-09-14T11:25:15Z</time>
      </trkpt>
      <trkpt lat="52.330150594934821" lon="7.912562359124422">
        <ele>64.22265625</ele>
        <time>2025-09-14T11:25:26Z</time>
      </trkpt>
      <trkpt lat="52.330341702327132" lon="7.911248579621315">
        <ele>64.390625</ele>
        <time>2025-09-14T11:25:37Z</time>
      </trkpt>
      <trkpt lat="52.330378498882055" lon="7.910583894699812">
        <ele>64.8828125</ele>
        <time>2025-09-14T11:25:42Z</time>
      </trkpt>
      <trkpt lat="52.330205412581563" lon="7.910365462303162">
        <ele>64.3125</ele>
        <time>2025-09-14T11:25:47Z</time>
      </trkpt>
      <trkpt lat="52.330081360414624" lon="7.909332141280174">
        <ele>65.17578125</ele>
        <time>2025-09-14T11:25:58Z</time>
      </trkpt>
      <trkpt lat="52.329970970749855" lon="7.908213241025806">
        <ele>65.7421875</ele>
        <time>2025-09-14T11:26:09Z</time>
      </trkpt>
      <trkpt lat="52.330004833638668" lon="7.907398184761405">
        <ele>63.98828125</ele>
        <time>2025-09-14T11:26:20Z</time>
      </trkpt>
      <trkpt lat="52.330567929893732" lon="7.906989902257919">
        <ele>61.99609375</ele>
        <time>2025-09-14T11:26:30Z</time>
      </trkpt>
      <trkpt lat="52.331208223477006" lon="7.906468464061618">
        <ele>61.625</ele>
        <time>2025-09-14T11:26:41Z</time>
      </trkpt>
      <trkpt lat="52.331861341372132" lon="7.90596378967166">
        <ele>58.34375</ele>
        <time>2025-09-14T11:26:52Z</time>
      </trkpt>
      <trkpt lat="52.332346318289638" lon="7.905166335403919">
        <ele>57.375</ele>
        <time>2025-09-14T11:27:03Z</time>
      </trkpt>
      <trkpt lat="52.332721240818501" lon="7.904342394322157">
        <ele>59.671875</ele>
        <time>2025-09-14T11:27:13Z</time>
      </trkpt>
      <trkpt lat="52.333184676244855" lon="7.903628339990974">
        <ele>59.4921875</ele>
        <time>2025-09-14T11:27:23Z</time>
      </trkpt>
      <trkpt lat="52.333687590435147" lon="7.902888134121895">
        <ele>55.57421875</ele>
        <time>2025-09-14T11:27:33Z</time>
      </trkpt>
      <trkpt lat="52.334208693355322" lon="7.902047764509916">
        <ele>55.69140625</ele>
        <time>2025-09-14T11:27:44Z</time>
      </trkpt>
      <trkpt lat="52.334650000557303" lon="7.901325495913625">
        <ele>56</ele>
        <time>2025-09-14T11:27:54Z</time>
      </trkpt>
      <trkpt lat="52.335180239751935" lon="7.900490406900644">
        <ele>55.8671875</ele>
        <time>2025-09-14T11:28:05Z</time>
      </trkpt>
      <trkpt lat="52.335744593292475" lon="7.899767300114036">
        <ele>54.41015625</ele>
        <time>2025-09-14T11:28:16Z</time>
      </trkpt>
      <trkpt lat="52.336319508031011" lon="7.899171682074666">
        <ele>52.1171875</ele>
        <time>2025-09-14T11:28:26Z</time>
      </trkpt>
      <trkpt lat="52.336966171860695" lon="7.898534238338471">
        <ele>53.2421875</ele>
        <time>2025-09-14T11:28:37Z</time>
      </trkpt>
      <trkpt lat="52.337577128782868" lon="7.897935518994927">
        <ele>55.6328125</ele>
        <time>2025-09-14T11:28:48Z</time>
      </trkpt>
      <trkpt lat="52.338107535615563" lon="7.897383905947208">
        <ele>56.625</ele>
        <time>2025-09-14T11:28:58Z</time>
      </trkpt>
      <trkpt lat="52.338420264422894" lon="7.896676138043404">
        <ele>56.5859375</ele>
        <time>2025-09-14T11:29:09Z</time>
      </trkpt>
      <trkpt lat="52.338536186143756" lon="7.895858064293861">
        <ele>57.3125</ele>
        <time>2025-09-14T11:29:20Z</time>
      </trkpt>
      <trkpt lat="52.339180503040552" lon="7.895926460623741">
        <ele>58.48828125</ele>
        <time>2025-09-14T11:29:31Z</time>
      </trkpt>
      <trkpt lat="52.339753322303295" lon="7.896022265776992">
        <ele>59.9453125</ele>
        <time>2025-09-14T11:29:41Z</time>
      </trkpt>
      <trkpt lat="52.340353801846504" lon="7.896112538874149">
        <ele>65.7890625</ele>
        <time>2025-09-14T11:29:51Z</time>
      </trkpt>
      <trkpt lat="52.340717827901244" lon="7.896192502230406">
        <ele>68.73828125</ele>
        <time>2025-09-14T11:30:01Z</time>
      </trkpt>
      <trkpt lat="52.341206325218081" lon="7.896625259891152">
        <ele>68.8359375</ele>
        <time>2025-09-14T11:30:12Z</time>
      </trkpt>
      <trkpt lat="52.341672023758292" lon="7.897332105785608">
        <ele>65.17578125</ele>
        <time>2025-09-14T11:30:23Z</time>
      </trkpt>
      <trkpt lat="52.342082234099507" lon="7.897979272529483">
        <ele>64.19921875</ele>
        <time>2025-09-14T11:30:33Z</time>
      </trkpt>
      <trkpt lat="52.342257332056761" lon="7.898255791515112">
        <ele>64.67578125</ele>
        <time>2025-09-14T11:30:43Z</time>
      </trkpt>
      <trkpt lat="52.342462688684464" lon="7.8984878025949">
        <ele>65.41015625</ele>
        <time>2025-09-14T11:31:36Z</time>
      </trkpt>
      <trkpt lat="52.342921262606978" lon="7.899091299623251">
        <ele>67.08203125</ele>
        <time>2025-09-14T11:31:46Z</time>
      </trkpt>
      <trkpt lat="52.343535488471389" lon="7.89948851801455">
        <ele>71.1640625</ele>
        <time>2025-09-14T11:31:57Z</time>
      </trkpt>
      <trkpt lat="52.344154492020607" lon="7.899759924039245">
        <ele>75.265625</ele>
        <time>2025-09-14T11:32:08Z</time>
      </trkpt>
      <trkpt lat="52.344709960743785" lon="7.900055637583137">
        <ele>76.98046875</ele>
        <time>2025-09-14T11:32:18Z</time>
      </trkpt>
      <trkpt lat="52.345300884917378" lon="7.900302903726697">
        <ele>79.54296875</ele>
        <time>2025-09-14T11:32:28Z</time>
      </trkpt>
      <trkpt lat="52.345730541273952" lon="7.899925215169787">
        <ele>82.25</ele>
        <time>2025-09-14T11:32:38Z</time>
      </trkpt>
      <trkpt lat="52.346066487953067" lon="7.899202778935432">
        <ele>82.76953125</ele>
        <time>2025-09-14T11:32:49Z</time>
      </trkpt>
      <trkpt lat="52.346453815698624" lon="7.89844773709774">
        <ele>85.265625</ele>
        <time>2025-09-14T11:33:00Z</time>
      </trkpt>
      <trkpt lat="52.34554186463356" lon="7.895336458459497">
        <ele>83.62890625</ele>
        <time>2025-09-14T11:33:05Z</time>
      </trkpt>
      <trkpt lat="52.348273862153292" lon="7.890485096722841">
        <ele>81.625</ele>
        <time>2025-09-14T11:33:07Z</time>
      </trkpt>
      <trkpt lat="52.348339576274157" lon="7.884076796472073">
        <ele>66.09375</ele>
        <time>2025-09-14T11:33:08Z</time>
      </trkpt>
      <trkpt lat="52.348246620967984" lon="7.880048705264926">
        <ele>66.4375</ele>
        <time>2025-09-14T11:33:09Z</time>
      </trkpt>
      <trkpt lat="52.35029716975987" lon="7.879819879308343">
        <ele>63.1875</ele>
        <time>2025-09-14T11:33:09Z</time>
      </trkpt>
      <trkpt lat="52.350777285173535" lon="7.880735518410802">
        <ele>63.578125</ele>
        <time>2025-09-14T11:33:09Z</time>
      </trkpt>
      <trkpt lat="52.351211803033948" lon="7.881410680711269">
        <ele>61.80859375</ele>
        <time>2025-09-14T11:33:09Z</time>
      </trkpt>
      <trkpt lat="52.351554874330759" lon="7.880237717181444">
        <ele>59.33203125</ele>
        <time>2025-09-14T11:33:09Z</time>
      </trkpt>
      <trkpt lat="52.352565312758088" lon="7.880543824285269">
        <ele>54.703125</ele>
        <time>2025-09-14T11:33:09Z</time>
      </trkpt>
      <trkpt lat="52.355006961151958" lon="7.880229083821178">
        <ele>55.30859375</ele>
        <time>2025-09-14T11:33:09Z</time>
      </trkpt>
      <trkpt lat="52.356900265440345" lon="7.878919495269656">
        <ele>55.796875</ele>
        <time>2025-09-14T11:33:09Z</time>
      </trkpt>
      <trkpt lat="52.357415836304426" lon="7.878926619887352">
        <ele>55.90625</ele>
        <time>2025-09-14T11:33:09Z</time>
      </trkpt>
      <trkpt lat="52.36058478243649" lon="7.881044140085578">
        <ele>56.92578125</ele>
        <time>2025-09-14T11:33:09Z</time>
      </trkpt>
      <trkpt lat="52.360754599794745" lon="7.880835765972734">
        <ele>56.8984375</ele>
        <time>2025-09-14T11:45:41Z</time>
      </trkpt>
      <trkpt lat="52.361301183700562" lon="7.880533682182431">
        <ele>57.1640625</ele>
        <time>2025-09-14T11:45:51Z</time>
      </trkpt>
      <trkpt lat="52.36193192191422" lon="7.88002691231668">
        <ele>57.5234375</ele>
        <time>2025-09-14T11:46:02Z</time>
      </trkpt>
      <trkpt lat="52.362462664023042" lon="7.87948451936245">
        <ele>57.92578125</ele>
        <time>2025-09-14T11:46:12Z</time>
      </trkpt>
      <trkpt lat="52.3630709387362" lon="7.879111524671316">
        <ele>57.390625</ele>
        <time>2025-09-14T11:46:23Z</time>
      </trkpt>
      <trkpt lat="52.363650966435671" lon="7.878891583532095">
        <ele>58.86328125</ele>
        <time>2025-09-14T11:46:33Z</time>
      </trkpt>
      <trkpt lat="52.364307269454002" lon="7.878706930205226">
        <ele>60.328125</ele>
        <time>2025-09-14T11:46:44Z</time>
      </trkpt>
      <trkpt lat="52.364843711256981" lon="7.878608861938119">
        <ele>61.37890625</ele>
        <time>2025-09-14T11:46:54Z</time>
      </trkpt>
      <trkpt lat="52.365343859419227" lon="7.878421191126108">
        <ele>61.95703125</ele>
        <time>2025-09-14T11:47:04Z</time>
      </trkpt>
      <trkpt lat="52.365807378664613" lon="7.877918109297752">
        <ele>61.48828125</ele>
        <time>2025-09-14T11:47:14Z</time>
      </trkpt>
      <trkpt lat="52.366379108279943" lon="7.877449980005622">
        <ele>62.2109375</ele>
        <time>2025-09-14T11:47:25Z</time>
      </trkpt>
      <trkpt lat="52.366910269483924" lon="7.877519717440009">
        <ele>63.8515625</ele>
        <time>2025-09-14T11:47:36Z</time>
      </trkpt>
      <trkpt lat="52.367427265271544" lon="7.877336237579584">
        <ele>64.5390625</ele>
        <time>2025-09-14T11:47:46Z</time>
      </trkpt>
      <trkpt lat="52.367977537214756" lon="7.877063238993287">
        <ele>64.69140625</ele>
        <time>2025-09-14T11:47:56Z</time>
      </trkpt>
      <trkpt lat="52.368511967360973" lon="7.876412635669112">
        <ele>63.21875</ele>
        <time>2025-09-14T11:48:07Z</time>
      </trkpt>
      <trkpt lat="52.368860486894846" lon="7.875478137284517">
        <ele>63.38671875</ele>
        <time>2025-09-14T11:48:17Z</time>
      </trkpt>
      <trkpt lat="52.369221495464444" lon="7.874584039673209">
        <ele>64.0625</ele>
        <time>2025-09-14T11:48:27Z</time>
      </trkpt>
      <trkpt lat="52.36960630863905" lon="7.873616265133023">
        <ele>62.41796875</ele>
        <time>2025-09-14T11:48:37Z</time>
      </trkpt>
      <trkpt lat="52.370044011622667" lon="7.872539190575481">
        <ele>62.0625</ele>
        <time>2025-09-14T11:48:48Z</time>
      </trkpt>
      <trkpt lat="52.370428824797273" lon="7.87156580016017">
        <ele>61.8984375</ele>
        <time>2025-09-14T11:48:58Z</time>
      </trkpt>
      <trkpt lat="52.370812799781561" lon="7.87059098482132">
        <ele>63.17578125</ele>
        <time>2025-09-14T11:49:08Z</time>
      </trkpt>
      <trkpt lat="52.371193002909422" lon="7.869620863348246">
        <ele>63.47265625</ele>
        <time>2025-09-14T11:49:18Z</time>
      </trkpt>
      <trkpt lat="52.371646715328097" lon="7.86850405856967">
        <ele>62.65234375</ele>
        <time>2025-09-14T11:49:29Z</time>
      </trkpt>
      <trkpt lat="52.372120376676321" lon="7.867345763370395">
        <ele>60.140625</ele>
        <time>2025-09-14T11:49:39Z</time>
      </trkpt>
      <trkpt lat="52.372675091028214" lon="7.866408918052912">
        <ele>60.546875</ele>
        <time>2025-09-14T11:49:50Z</time>
      </trkpt>
      <trkpt lat="52.37319627776742" lon="7.865753620862961">
        <ele>57.703125</ele>
        <time>2025-09-14T11:50:00Z</time>
      </trkpt>
      <trkpt lat="52.373745795339346" lon="7.865119781345129">
        <ele>57.56640625</ele>
        <time>2025-09-14T11:50:11Z</time>
      </trkpt>
      <trkpt lat="52.374384663999081" lon="7.864550733938813">
        <ele>58.7265625</ele>
        <time>2025-09-14T11:50:21Z</time>
      </trkpt>
      <trkpt lat="52.375033590942621" lon="7.863889234140515">
        <ele>59.109375</ele>
        <time>2025-09-14T11:50:32Z</time>
      </trkpt>
      <trkpt lat="52.375567266717553" lon="7.863288335502148">
        <ele>59.328125</ele>
        <time>2025-09-14T11:50:42Z</time>
      </trkpt>
      <trkpt lat="52.376197082921863" lon="7.862725658342242">
        <ele>59.29296875</ele>
        <time>2025-09-14T11:50:53Z</time>
      </trkpt>
      <trkpt lat="52.376798316836357" lon="7.862276472151279">
        <ele>57.67578125</ele>
        <time>2025-09-14T11:51:03Z</time>
      </trkpt>
      <trkpt lat="52.377470713108778" lon="7.861787304282188">
        <ele>56.5234375</ele>
        <time>2025-09-14T11:51:14Z</time>
      </trkpt>
      <trkpt lat="52.378092398867011" lon="7.861342141404748">
        <ele>54.7109375</ele>
        <time>2025-09-14T11:51:24Z</time>
      </trkpt>
      <trkpt lat="52.378703188151121" lon="7.860873760655522">
        <ele>54.15234375</ele>
        <time>2025-09-14T11:51:34Z</time>
      </trkpt>
      <trkpt lat="52.379299979656935" lon="7.860419964417815">
        <ele>54.75</ele>
        <time>2025-09-14T11:51:45Z</time>
      </trkpt>
      <trkpt lat="52.379900040104985" lon="7.85997798666358">
        <ele>55.33203125</ele>
        <time>2025-09-14T11:51:55Z</time>
      </trkpt>
      <trkpt lat="52.380512086674571" lon="7.859525782987475">
        <ele>54.98046875</ele>
        <time>2025-09-14T11:52:05Z</time>
      </trkpt>
      <trkpt lat="52.381151793524623" lon="7.859051199629903">
        <ele>56.87890625</ele>
        <time>2025-09-14T11:52:16Z</time>
      </trkpt>
      <trkpt lat="52.381791081279516" lon="7.858581058681011">
        <ele>59.7109375</ele>
        <time>2025-09-14T11:52:27Z</time>
      </trkpt>
      <trkpt lat="52.38239667378366" lon="7.858124664053321">
        <ele>62</ele>
        <time>2025-09-14T11:52:38Z</time>
      </trkpt>
      <trkpt lat="52.382920207455754" lon="7.857677740976214">
        <ele>61.95703125</ele>
        <time>2025-09-14T11:52:48Z</time>
      </trkpt>
      <trkpt lat="52.383432425558567" lon="7.857290664687753">
        <ele>61.70703125</ele>
        <time>2025-09-14T11:52:58Z</time>
      </trkpt>
      <trkpt lat="52.384022260084748" lon="7.856872575357556">
        <ele>61.8671875</ele>
        <time>2025-09-14T11:53:09Z</time>
      </trkpt>
      <trkpt lat="52.384653920307755" lon="7.85658298060298">
        <ele>61.390625</ele>
        <time>2025-09-14T11:53:20Z</time>
      </trkpt>
      <trkpt lat="52.385248281061649" lon="7.856455659493804">
        <ele>61.21484375</ele>
        <time>2025-09-14T11:53:30Z</time>
      </trkpt>
      <trkpt lat="52.38589963875711" lon="7.856183080002666">
        <ele>61.671875</ele>
        <time>2025-09-14T11:53:41Z</time>
      </trkpt>
      <trkpt lat="52.38651629537344" lon="7.855761973187327">
        <ele>62.46484375</ele>
        <time>2025-09-14T11:53:52Z</time>
      </trkpt>
      <trkpt lat="52.387158013880253" lon="7.855391409248114">
        <ele>63.6796875</ele>
        <time>2025-09-14T11:54:03Z</time>
      </trkpt>
      <trkpt lat="52.387744160369039" lon="7.855076668784022">
        <ele>63.5703125</ele>
        <time>2025-09-14T11:54:13Z</time>
      </trkpt>
      <trkpt lat="52.388380598276854" lon="7.854688419029117">
        <ele>63.26953125</ele>
        <time>2025-09-14T11:54:24Z</time>
      </trkpt>
      <trkpt lat="52.389085683971643" lon="7.854394465684891">
        <ele>62.984375</ele>
        <time>2025-09-14T11:54:35Z</time>
      </trkpt>
      <trkpt lat="52.389808958396316" lon="7.854295391589403">
        <ele>62.76171875</ele>
        <time>2025-09-14T11:54:45Z</time>
      </trkpt>
      <trkpt lat="52.390669360756874" lon="7.854195982217789">
        <ele>61.30859375</ele>
        <time>2025-09-14T11:54:56Z</time>
      </trkpt>
      <trkpt lat="52.391360783949494" lon="7.853889288380742">
        <ele>61.9765625</ele>
        <time>2025-09-14T11:55:07Z</time>
      </trkpt>
      <trkpt lat="52.391862273216248" lon="7.854029936715961">
        <ele>62.3125</ele>
        <time>2025-09-14T11:55:18Z</time>
      </trkpt>
      <trkpt lat="52.392458729445934" lon="7.858004299923778">
        <ele>55.1328125</ele>
        <time>2025-09-14T11:55:20Z</time>
      </trkpt>
      <trkpt lat="52.392405671998858" lon="7.859249264001846">
        <ele>53.31640625</ele>
        <time>2025-09-14T11:55:23Z</time>
      </trkpt>
      <trkpt lat="52.392368707805872" lon="7.860566899180412">
        <ele>54</ele>
        <time>2025-09-14T11:55:24Z</time>
      </trkpt>
      <trkpt lat="52.391807874664664" lon="7.863120613619685">
        <ele>54.2578125</ele>
        <time>2025-09-14T11:55:25Z</time>
      </trkpt>
      <trkpt lat="52.395329866558313" lon="7.862333217635751">
        <ele>54.02734375</ele>
        <time>2025-09-14T11:55:26Z</time>
      </trkpt>
      <trkpt lat="52.396483384072781" lon="7.861458901315928">
        <ele>53.859375</ele>
        <time>2025-09-14T11:55:26Z</time>
      </trkpt>
      <trkpt lat="52.397877210751176" lon="7.861296376213431">
        <ele>60.35546875</ele>
        <time>2025-09-14T11:55:26Z</time>
      </trkpt>
      <trkpt lat="52.398401582613587" lon="7.860824894160032">
        <ele>62.203125</ele>
        <time>2025-09-14T11:55:26Z</time>
      </trkpt>
      <trkpt lat="52.399252261966467" lon="7.862200364470482">
        <ele>55.25390625</ele>
        <time>2025-09-14T11:55:27Z</time>
      </trkpt>
      <trkpt lat="52.400311315432191" lon="7.862321734428406">
        <ele>56.921875</ele>
        <time>2025-09-14T11:55:27Z</time>
      </trkpt>
      <trkpt lat="52.401801366358995" lon="7.862300528213382">
        <ele>53.77734375</ele>
        <time>2025-09-14T11:55:27Z</time>
      </trkpt>
      <trkpt lat="52.403731383383274" lon="7.860528426244855">
        <ele>53.94921875</ele>
        <time>2025-09-14T11:55:27Z</time>
      </trkpt>
      <trkpt lat="52.40455842576921" lon="7.85963449627161">
        <ele>53.06640625</ele>
        <time>2025-09-14T12:00:48Z</time>
      </trkpt>
      <trkpt lat="52.405131077393889" lon="7.859060419723392">
        <ele>52.32421875</ele>
        <time>2025-09-14T12:00:58Z</time>
      </trkpt>
      <trkpt lat="52.405752511695027" lon="7.858455497771502">
        <ele>52.328125</ele>
        <time>2025-09-14T12:01:09Z</time>
      </trkpt>
      <trkpt lat="52.406346369534731" lon="7.85786272957921">
        <ele>53.75390625</ele>
        <time>2025-09-14T12:01:20Z</time>
      </trkpt>
      <trkpt lat="52.406852971762419" lon="7.857342716306448">
        <ele>53.49609375</ele>
        <time>2025-09-14T12:01:31Z</time>
      </trkpt>
      <trkpt lat="52.407385725528002" lon="7.854532096534967">
        <ele>55.8515625</ele>
        <time>2025-09-14T12:01:36Z</time>
      </trkpt>
      <trkpt lat="52.407253962010145" lon="7.85235439427197">
        <ele>56.98828125</ele>
        <time>2025-09-14T12:01:39Z</time>
      </trkpt>
      <trkpt lat="52.406779797747731" lon="7.845935365185142">
        <ele>59.6875</ele>
        <time>2025-09-14T12:01:40Z</time>
      </trkpt>
      <trkpt lat="52.404898479580879" lon="7.83914677798748">
        <ele>63.84375</ele>
        <time>2025-09-14T12:01:41Z</time>
      </trkpt>
      <trkpt lat="52.404492041096091" lon="7.836748128756881">
        <ele>65.76171875</ele>
        <time>2025-09-14T12:01:41Z</time>
      </trkpt>
      <trkpt lat="52.405115989968181" lon="7.834896482527256">
        <ele>67.76171875</ele>
        <time>2025-09-14T12:01:41Z</time>
      </trkpt>
      <trkpt lat="52.404621625319123" lon="7.832202538847923">
        <ele>67.703125</ele>
        <time>2025-09-14T12:01:41Z</time>
      </trkpt>
      <trkpt lat="52.40541648119688" lon="7.831962816417217">
        <ele>65.46484375</ele>
        <time>2025-09-14T12:01:41Z</time>
      </trkpt>
      <trkpt lat="52.404740480706096" lon="7.825500033795834">
        <ele>52.00390625</ele>
        <time>2025-09-14T12:01:41Z</time>
      </trkpt>
      <trkpt lat="52.405513962730765" lon="7.823884338140488">
        <ele>52.06640625</ele>
        <time>2025-09-14T12:01:41Z</time>
      </trkpt>
      <trkpt lat="52.405575402081013" lon="7.822474585846067">
        <ele>50.6875</ele>
        <time>2025-09-14T12:01:41Z</time>
      </trkpt>
      <trkpt lat="52.405679421499372" lon="7.82149507664144">
        <ele>49.9375</ele>
        <time>2025-09-14T12:01:41Z</time>
      </trkpt>
      <trkpt lat="52.40504021756351" lon="7.817451981827617">
        <ele>48.63671875</ele>
        <time>2025-09-14T12:01:41Z</time>
      </trkpt>
      <trkpt lat="52.401788458228111" lon="7.812088988721371">
        <ele>47.6953125</ele>
        <time>2025-09-14T12:02:23Z</time>
      </trkpt>
      <trkpt lat="52.404168667271733" lon="7.799309687688947">
        <ele>48.40625</ele>
        <time>2025-09-14T12:02:44Z</time>
      </trkpt>
      <trkpt lat="52.404276123270392" lon="7.798715326935053">
        <ele>48.48046875</ele>
        <time>2025-09-14T12:03:04Z</time>
      </trkpt>
      <trkpt lat="52.401819890365005" lon="7.795778308063746">
        <ele>48.50390625</ele>
        <time>2025-09-14T12:03:04Z</time>
      </trkpt>
      <trkpt lat="52.396501488983631" lon="7.80105471611023">
        <ele>47.890625</ele>
        <time>2025-09-14T12:22:54Z</time>
      </trkpt>
      <trkpt lat="52.394554289057851" lon="7.804310917854309">
        <ele>49.2265625</ele>
        <time>2025-09-14T12:32:49Z</time>
      </trkpt>
      <trkpt lat="52.392700714990497" lon="7.795913927257061">
        <ele>48.4375</ele>
        <time>2025-09-14T12:37:46Z</time>
      </trkpt>
      <trkpt lat="52.384104821830988" lon="7.784848976880312">
        <ele>47</ele>
        <time>2025-09-14T12:40:15Z</time>
      </trkpt>
      <trkpt lat="52.379943206906319" lon="7.794734174385667">
        <ele>49.671875</ele>
        <time>2025-09-14T12:40:52Z</time>
      </trkpt>
      <trkpt lat="52.375121433287859" lon="7.80875651165843">
        <ele>51.09375</ele>
        <time>2025-09-14T12:41:29Z</time>
      </trkpt>
      <trkpt lat="52.370840376242995" lon="7.804051078855991">
        <ele>55.1953125</ele>
        <time>2025-09-14T12:42:39Z</time>
      </trkpt>
      <trkpt lat="52.368634594604373" lon="7.801130907610059">
        <ele>52.30078125</ele>
        <time>2025-09-14T12:43:49Z</time>
      </trkpt>
      <trkpt lat="52.365464558824897" lon="7.797009190544486">
        <ele>54.421875</ele>
        <time>2025-09-14T12:44:59Z</time>
      </trkpt>
      <trkpt lat="52.363984398543835" lon="7.795463316142559">
        <ele>55.171875</ele>
        <time>2025-09-14T12:45:34Z</time>
      </trkpt>
      <trkpt lat="52.361791441217065" lon="7.793745696544647">
        <ele>53.76171875</ele>
        <time>2025-09-14T12:46:09Z</time>
      </trkpt>
      <trkpt lat="52.357501164078712" lon="7.790374998003244">
        <ele>53.5703125</ele>
        <time>2025-09-14T12:47:19Z</time>
      </trkpt>
      <trkpt lat="52.35606886446476" lon="7.789376210421324">
        <ele>51.8515625</ele>
        <time>2025-09-14T12:47:54Z</time>
      </trkpt>
      <trkpt lat="52.355617163702846" lon="7.787414593622088">
        <ele>51.421875</ele>
        <time>2025-09-14T12:47:59Z</time>
      </trkpt>
      <trkpt lat="52.355800224468112" lon="7.785472506657243">
        <ele>54.32421875</ele>
        <time>2025-09-14T12:48:01Z</time>
      </trkpt>
      <trkpt lat="52.355500990524888" lon="7.785693285986781">
        <ele>54.125</ele>
        <time>2025-09-14T12:48:03Z</time>
      </trkpt>
      <trkpt lat="52.353786304593086" lon="7.785562193021178">
        <ele>52.08203125</ele>
        <time>2025-09-14T12:48:05Z</time>
      </trkpt>
      <trkpt lat="52.352499095723033" lon="7.785170506685972">
        <ele>58.86328125</ele>
        <time>2025-09-14T12:48:06Z</time>
      </trkpt>
      <trkpt lat="52.352071618661284" lon="7.785431100055575">
        <ele>56.8125</ele>
        <time>2025-09-14T12:48:08Z</time>
      </trkpt>
      <trkpt lat="52.351562669500709" lon="7.786827776581049">
        <ele>53.48828125</ele>
        <time>2025-09-14T12:48:10Z</time>
      </trkpt>
      <trkpt lat="52.347444221377373" lon="7.78911410830915">
        <ele>53.23828125</ele>
        <time>2025-09-14T12:48:11Z</time>
      </trkpt>
      <trkpt lat="52.346658920869231" lon="7.790780682116747">
        <ele>53.83984375</ele>
        <time>2025-09-14T12:48:11Z</time>
      </trkpt>
      <trkpt lat="52.345637083053589" lon="7.78976010158658">
        <ele>54.19140625</ele>
        <time>2025-09-14T12:48:12Z</time>
      </trkpt>
      <trkpt lat="52.339529525488615" lon="7.79238891787827">
        <ele>51.30859375</ele>
        <time>2025-09-14T12:48:12Z</time>
      </trkpt>
      <trkpt lat="52.333076717332006" lon="7.791780726984143">
        <ele>54.0390625</ele>
        <time>2025-09-14T12:48:12Z</time>
      </trkpt>
      <trkpt lat="52.329215928912163" lon="7.791089219972491">
        <ele>57.6796875</ele>
        <time>2025-09-14T12:48:14Z</time>
      </trkpt>
      <trkpt lat="52.327998792752624" lon="7.790743466466665">
        <ele>59.80078125</ele>
        <time>2025-09-14T12:48:15Z</time>
      </trkpt>
      <trkpt lat="52.325533339753747" lon="7.78940387070179">
        <ele>60.18359375</ele>
        <time>2025-09-14T12:48:15Z</time>
      </trkpt>
      <trkpt lat="52.32144121080637" lon="7.788098137825728">
        <ele>62.18359375</ele>
        <time>2025-09-14T12:48:16Z</time>
      </trkpt>
      <trkpt lat="52.32073268853128" lon="7.787874592468143">
        <ele>62.8359375</ele>
        <time>2025-09-14T12:48:16Z</time>
      </trkpt>
      <trkpt lat="52.319497028365731" lon="7.788483873009682">
        <ele>66.26953125</ele>
        <time>2025-09-14T12:48:16Z</time>
      </trkpt>
      <trkpt lat="52.318946672603488" lon="7.785975420847535">
        <ele>66.29296875</ele>
        <time>2025-09-14T12:48:16Z</time>
      </trkpt>
      <trkpt lat="52.318703010678291" lon="7.785390699282289">
        <ele>68.03125</ele>
        <time>2025-09-14T12:48:16Z</time>
      </trkpt>
      <trkpt lat="52.317542284727097" lon="7.783141331747174">
        <ele>67.55078125</ele>
        <time>2025-09-14T12:48:16Z</time>
      </trkpt>
      <trkpt lat="52.318095238879323" lon="7.782136760652065">
        <ele>65.8203125</ele>
        <time>2025-09-14T12:48:16Z</time>
      </trkpt>
      <trkpt lat="52.318025417625904" lon="7.781274095177651">
        <ele>66.234375</ele>
        <time>2025-09-14T12:48:16Z</time>
      </trkpt>
      <trkpt lat="52.318188110366464" lon="7.780841588973999">
        <ele>65.84375</ele>
        <time>2025-09-14T12:48:16Z</time>
      </trkpt>
      <trkpt lat="52.317305831238627" lon="7.780523495748639">
        <ele>69.3046875</ele>
        <time>2025-09-14T12:48:16Z</time>
      </trkpt>
      <trkpt lat="52.318102866411209" lon="7.780862208455801">
        <ele>66.0625</ele>
        <time>2025-09-14T12:48:16Z</time>
      </trkpt>
      <trkpt lat="52.31811317615211" lon="7.781220367178321">
        <ele>66.0234375</ele>
        <time>2025-09-14T12:48:16Z</time>
      </trkpt>
      <trkpt lat="52.318031704053283" lon="7.782124187797308">
        <ele>66.0078125</ele>
        <time>2025-09-14T12:48:16Z</time>
      </trkpt>
      <trkpt lat="52.317552929744124" lon="7.783156083896756">
        <ele>67.53125</ele>
        <time>2025-09-14T12:48:16Z</time>
      </trkpt>
      <trkpt lat="52.3187405616045" lon="7.785474434494972">
        <ele>67.8046875</ele>
        <time>2025-09-14T12:48:16Z</time>
      </trkpt>
      <trkpt lat="52.319428883492947" lon="7.788504660129547">
        <ele>66.375</ele>
        <time>2025-09-14T12:48:16Z</time>
      </trkpt>
      <trkpt lat="52.31995141133666" lon="7.789693716913462">
        <ele>65.8046875</ele>
        <time>2025-09-14T12:48:16Z</time>
      </trkpt>
      <trkpt lat="52.320473939180374" lon="7.790882689878345">
        <ele>66.2421875</ele>
        <time>2025-09-14T12:48:16Z</time>
      </trkpt>
      <trkpt lat="52.320060124620795" lon="7.793112192302942">
        <ele>69.78515625</ele>
        <time>2025-09-14T12:48:16Z</time>
      </trkpt>
      <trkpt lat="52.320146961137652" lon="7.794055240228772">
        <ele>68.62890625</ele>
        <time>2025-09-14T12:48:16Z</time>
      </trkpt>
      <trkpt lat="52.320798989385366" lon="7.795075988397002">
        <ele>67.359375</ele>
        <time>2025-09-14T12:48:16Z</time>
      </trkpt>
      <trkpt lat="52.320894207805395" lon="7.79651340097189">
        <ele>66.99609375</ele>
        <time>2025-09-14T12:48:16Z</time>
      </trkpt>
      <trkpt lat="52.320375200361013" lon="7.80299998819828">
        <ele>60.41015625</ele>
        <time>2025-09-14T12:48:16Z</time>
      </trkpt>
      <trkpt lat="52.320493385195732" lon="7.804251909255981">
        <ele>59.875</ele>
        <time>2025-09-14T12:48:16Z</time>
      </trkpt>
      <trkpt lat="52.321517821401358" lon="7.806422905996442">
        <ele>60.97265625</ele>
        <time>2025-09-14T12:48:16Z</time>
      </trkpt>
      <trkpt lat="52.325030760839581" lon="7.806203719228506">
        <ele>56</ele>
        <time>2025-09-14T12:48:16Z</time>
      </trkpt>
      <trkpt lat="52.327486323192716" lon="7.812442621216178">
        <ele>54.7578125</ele>
        <time>2025-09-14T12:48:20Z</time>
      </trkpt>
      <trkpt lat="52.329357583075762" lon="7.821602700278163">
        <ele>59.78125</ele>
        <time>2025-09-14T12:48:21Z</time>
      </trkpt>
      <trkpt lat="52.326381169259548" lon="7.822490176185966">
        <ele>57.6484375</ele>
        <time>2025-09-14T12:48:21Z</time>
      </trkpt>
      <trkpt lat="52.32428602874279" lon="7.8222103882581">
        <ele>58.2578125</ele>
        <time>2025-09-14T12:48:21Z</time>
      </trkpt>
      <trkpt lat="52.32334490865469" lon="7.821621727198362">
        <ele>58.1796875</ele>
        <time>2025-09-14T12:48:21Z</time>
      </trkpt>
      <trkpt lat="52.3197266086936" lon="7.82359323464334">
        <ele>61.14453125</ele>
        <time>2025-09-14T12:48:21Z</time>
      </trkpt>
      <trkpt lat="52.31753951869905" lon="7.822793684899807">
        <ele>63.52734375</ele>
        <time>2025-09-14T12:48:21Z</time>
      </trkpt>
      <trkpt lat="52.313633468002081" lon="7.846563924103975">
        <ele>75.37109375</ele>
        <time>2025-09-14T12:48:21Z</time>
      </trkpt>
      <trkpt lat="52.313821138814092" lon="7.847600011155009">
        <ele>74.47265625</ele>
        <time>2025-09-14T12:48:21Z</time>
      </trkpt>
      <trkpt lat="52.311900006607175" lon="7.84811801277101">
        <ele>81.59375</ele>
        <time>2025-09-14T12:48:21Z</time>
      </trkpt>
      <trkpt lat="52.30963789857924" lon="7.849201038479805">
        <ele>81.0546875</ele>
        <time>2025-09-14T12:48:21Z</time>
      </trkpt>
      <trkpt lat="52.30825362727046" lon="7.850124137476087">
        <ele>74.7734375</ele>
        <time>2025-09-14T12:48:21Z</time>
      </trkpt>
      <trkpt lat="52.305336305871606" lon="7.845641830936074">
        <ele>85.01953125</ele>
        <time>2025-09-14T12:48:21Z</time>
      </trkpt>
      <trkpt lat="52.30509708635509" lon="7.845315439626575">
        <ele>86.09375</ele>
        <time>2025-09-14T12:48:21Z</time>
      </trkpt>
      <trkpt lat="52.304514460265636" lon="7.848967015743256">
        <ele>81.1796875</ele>
        <time>2025-09-14T12:48:21Z</time>
      </trkpt>
      <trkpt lat="52.300990037620068" lon="7.853814102709293">
        <ele>84.04296875</ele>
        <time>2025-09-14T12:48:21Z</time>
      </trkpt>
      <trkpt lat="52.301746672019362" lon="7.861456135287881">
        <ele>79</ele>
        <time>2025-09-14T12:48:21Z</time>
      </trkpt>
      <trkpt lat="52.301579285413027" lon="7.86307979375124">
        <ele>81.4296875</ele>
        <time>2025-09-14T12:48:21Z</time>
      </trkpt>
      <trkpt lat="52.303007058799267" lon="7.873710729181767">
        <ele>87.73046875</ele>
        <time>2025-09-14T12:48:21Z</time>
      </trkpt>
      <trkpt lat="52.303679203614593" lon="7.879987517371774">
        <ele>79.99609375</ele>
        <time>2025-09-14T12:48:21Z</time>
      </trkpt>
      <trkpt lat="52.304183291271329" lon="7.882576603442431">
        <ele>77.96875</ele>
        <time>2025-09-14T12:48:21Z</time>
      </trkpt>
      <trkpt lat="52.303091799840331" lon="7.885725013911724">
        <ele>70.0078125</ele>
        <time>2025-09-14T12:48:21Z</time>
      </trkpt>
      <trkpt lat="52.303511565551162" lon="7.888603862375021">
        <ele>63.78125</ele>
        <time>2025-09-14T12:48:21Z</time>
      </trkpt>
      <trkpt lat="52.302587879821658" lon="7.895673830062151">
        <ele>62.0390625</ele>
        <time>2025-09-14T12:48:21Z</time>
      </trkpt>
      <trkpt lat="52.302440106868744" lon="7.896255869418383">
        <ele>61.16796875</ele>
        <time>2025-09-14T13:29:09Z</time>
      </trkpt>
      <trkpt lat="52.302242796868086" lon="7.897027926519513">
        <ele>60.93359375</ele>
        <time>2025-09-14T13:29:20Z</time>
      </trkpt>
      <trkpt lat="52.302248077467084" lon="7.898066779598594">
        <ele>60.45703125</ele>
        <time>2025-09-14T13:29:31Z</time>
      </trkpt>
      <trkpt lat="52.302175322547555" lon="7.899064058437944">
        <ele>59.80078125</ele>
        <time>2025-09-14T13:29:41Z</time>
      </trkpt>
      <trkpt lat="52.30207297950983" lon="7.900178264826536">
        <ele>59.99609375</ele>
        <time>2025-09-14T13:29:52Z</time>
      </trkpt>
      <trkpt lat="52.301958482712507" lon="7.901283418759704">
        <ele>60.7265625</ele>
        <time>2025-09-14T13:30:02Z</time>
      </trkpt>
      <trkpt lat="52.301851697266102" lon="7.902410533279181">
        <ele>61.5390625</ele>
        <time>2025-09-14T13:30:13Z</time>
      </trkpt>
      <trkpt lat="52.301735188812017" lon="7.903471514582634">
        <ele>61.34375</ele>
        <time>2025-09-14T13:30:23Z</time>
      </trkpt>
      <trkpt lat="52.301999302580953" lon="7.90431372821331">
        <ele>61.640625</ele>
        <time>2025-09-14T13:30:34Z</time>
      </trkpt>
      <trkpt lat="52.302505569532514" lon="7.905025687068701">
        <ele>62</ele>
        <time>2025-09-14T13:30:45Z</time>
      </trkpt>
      <trkpt lat="52.30293883010745" lon="7.905726581811905">
        <ele>63</ele>
        <time>2025-09-14T13:30:55Z</time>
      </trkpt>
      <trkpt lat="52.303493209183216" lon="7.905826326459646">
        <ele>62.77734375</ele>
        <time>2025-09-14T13:31:05Z</time>
      </trkpt>
      <trkpt lat="52.30414716526866" lon="7.905386192724109">
        <ele>61.62890625</ele>
        <time>2025-09-14T13:31:16Z</time>
      </trkpt>
      <trkpt lat="52.304821237921715" lon="7.904940275475383">
        <ele>62.39453125</ele>
        <time>2025-09-14T13:31:27Z</time>
      </trkpt>
      <trkpt lat="52.305448204278946" lon="7.904458986595273">
        <ele>61.16015625</ele>
        <time>2025-09-14T13:31:38Z</time>
      </trkpt>
      <trkpt lat="52.305930498987436" lon="7.903725234791637">
        <ele>63.578125</ele>
        <time>2025-09-14T13:31:48Z</time>
      </trkpt>
      <trkpt lat="52.306595603004098" lon="7.903453325852752">
        <ele>68.8828125</ele>
        <time>2025-09-14T13:31:59Z</time>
      </trkpt>
      <trkpt lat="52.307101702317595" lon="7.903531612828374">
        <ele>68.29296875</ele>
        <time>2025-09-14T13:32:10Z</time>
      </trkpt>
      <trkpt lat="52.307291468605399" lon="7.904368964955211">
        <ele>72.08203125</ele>
        <time>2025-09-14T13:32:20Z</time>
      </trkpt>
      <trkpt lat="52.307523479685187" lon="7.905232636258006">
        <ele>74.859375</ele>
        <time>2025-09-14T13:32:30Z</time>
      </trkpt>
      <trkpt lat="52.307811314240098" lon="7.906105192378163">
        <ele>77.46875</ele>
        <time>2025-09-14T13:32:41Z</time>
      </trkpt>
      <trkpt lat="52.308248598128557" lon="7.906631240621209">
        <ele>74.34375</ele>
        <time>2025-09-14T13:32:52Z</time>
      </trkpt>
      <trkpt lat="52.308303918689489" lon="7.907526763156056">
        <ele>69.5546875</ele>
        <time>2025-09-14T13:33:03Z</time>
      </trkpt>
      <trkpt lat="52.308477591723204" lon="7.908524964004755">
        <ele>65.70703125</ele>
        <time>2025-09-14T13:33:13Z</time>
      </trkpt>
      <trkpt lat="52.308963239192963" lon="7.909442028030753">
        <ele>61.88671875</ele>
        <time>2025-09-14T13:33:24Z</time>
      </trkpt>
      <trkpt lat="52.309437906369567" lon="7.91016991250217">
        <ele>62.1484375</ele>
        <time>2025-09-14T13:33:34Z</time>
      </trkpt>
      <trkpt lat="52.309801010414958" lon="7.910960158333182">
        <ele>62.078125</ele>
        <time>2025-09-14T13:33:44Z</time>
      </trkpt>
      <trkpt lat="52.310347259044647" lon="7.911396436393261">
        <ele>63.78125</ele>
        <time>2025-09-14T13:33:55Z</time>
      </trkpt>
      <trkpt lat="52.310780016705394" lon="7.912028264254332">
        <ele>66.69140625</ele>
        <time>2025-09-14T13:34:06Z</time>
      </trkpt>
      <trkpt lat="52.311012530699372" lon="7.913143895566464">
        <ele>66.78515625</ele>
        <time>2025-09-14T13:34:17Z</time>
      </trkpt>
      <trkpt lat="52.311083441600204" lon="7.914188113063574">
        <ele>65.03515625</ele>
        <time>2025-09-14T13:34:27Z</time>
      </trkpt>
      <trkpt lat="52.311103725805879" lon="7.915365602821112">
        <ele>61.96875</ele>
        <time>2025-09-14T13:34:38Z</time>
      </trkpt>
      <trkpt lat="52.311116298660636" lon="7.916446197777987">
        <ele>62.3515625</ele>
        <time>2025-09-14T13:34:48Z</time>
      </trkpt>
      <trkpt lat="52.311135241761804" lon="7.917478261515498">
        <ele>62.31640625</ele>
        <time>2025-09-14T13:34:58Z</time>
      </trkpt>
      <trkpt lat="52.311086961999536" lon="7.918649967759848">
        <ele>63.09765625</ele>
        <time>2025-09-14T13:35:09Z</time>
      </trkpt>
      <trkpt lat="52.31112920679152" lon="7.919789236038923">
        <ele>61.90625</ele>
        <time>2025-09-14T13:35:20Z</time>
      </trkpt>
      <trkpt lat="52.311240937560797" lon="7.920741839334369">
        <ele>64.3671875</ele>
        <time>2025-09-14T13:35:30Z</time>
      </trkpt>
      <trkpt lat="52.311406312510371" lon="7.921714140102267">
        <ele>67.45703125</ele>
        <time>2025-09-14T13:35:41Z</time>
      </trkpt>
      <trkpt lat="52.311581494286656" lon="7.922578481957316">
        <ele>67.7109375</ele>
        <time>2025-09-14T13:35:51Z</time>
      </trkpt>
      <trkpt lat="52.311792969703674" lon="7.923388089984655">
        <ele>66.68359375</ele>
        <time>2025-09-14T13:36:01Z</time>
      </trkpt>
      <trkpt lat="52.311963709071279" lon="7.924219826236367">
        <ele>66.39453125</ele>
        <time>2025-09-14T13:36:11Z</time>
      </trkpt>
      <trkpt lat="52.311989860609174" lon="7.925192881375551">
        <ele>66.66796875</ele>
        <time>2025-09-14T13:36:21Z</time>
      </trkpt>
      <trkpt lat="52.312139896675944" lon="7.92644320987165">
        <ele>69.36328125</ele>
        <time>2025-09-14T13:36:32Z</time>
      </trkpt>
      <trkpt lat="52.312339972704649" lon="7.92758172377944">
        <ele>69.84375</ele>
        <time>2025-09-14T13:36:43Z</time>
      </trkpt>
      <trkpt lat="52.312615402042866" lon="7.928779162466526">
        <ele>65.02734375</ele>
        <time>2025-09-14T13:36:54Z</time>
      </trkpt>
      <trkpt lat="52.312836768105626" lon="7.929391041398048">
        <ele>62.28125</ele>
        <time>2025-09-14T13:37:05Z</time>
      </trkpt>
      <trkpt lat="52.312682205811143" lon="7.930198637768626">
        <ele>61.51171875</ele>
        <time>2025-09-14T13:37:15Z</time>
      </trkpt>
      <trkpt lat="52.312528397887945" lon="7.931356094777584">
        <ele>60.6953125</ele>
        <time>2025-09-14T13:37:26Z</time>
      </trkpt>
      <trkpt lat="52.312374673783779" lon="7.932511959224939">
        <ele>59.203125</ele>
        <time>2025-09-14T13:37:37Z</time>
      </trkpt>
      <trkpt lat="52.312209382653236" lon="7.933704787865281">
        <ele>59.03125</ele>
        <time>2025-09-14T13:37:48Z</time>
      </trkpt>
      <trkpt lat="52.311768578365445" lon="7.934254137799144">
        <ele>59.4140625</ele>
      </trkpt>
      <trkpt lat="52.311201877892017" lon="7.936417004093528">
        <ele>59</ele>
      </trkpt>
      <trkpt lat="52.310803066939116" lon="7.93840829282999">
        <ele>58.765625</ele>
      </trkpt>
      <trkpt lat="52.308725025504827" lon="7.940605608746409">
        <ele>61.1328125</ele>
      </trkpt>
      <trkpt lat="52.309165829792619" lon="7.942013181746006">
        <ele>60.7109375</ele>
      </trkpt>
      <trkpt lat="52.310991995036602" lon="7.94465683400631">
        <ele>62.57421875</ele>
      </trkpt>
      <trkpt lat="52.311275387182832" lon="7.948519214987755">
        <ele>65.66015625</ele>
      </trkpt>
      <trkpt lat="52.310047438368201" lon="7.950544785708189">
        <ele>59.28125</ele>
      </trkpt>
      <trkpt lat="52.308767018839717" lon="7.950338758528233">
        <ele>60.1953125</ele>
      </trkpt>
      <trkpt lat="52.307444605976343" lon="7.950579067692161">
        <ele>60.17578125</ele>
      </trkpt>
      <trkpt lat="52.305523809045553" lon="7.949102763086557">
        <ele>61.6171875</ele>
      </trkpt>
      <trkpt lat="52.305513331666589" lon="7.95789185911417">
        <ele>60.1484375</ele>
      </trkpt>
      <trkpt lat="52.3037289083004" lon="7.959350980818272">
        <ele>59.59765625</ele>
      </trkpt>
      <trkpt lat="52.303057098761201" lon="7.960775820538402">
        <ele>62.1328125</ele>
      </trkpt>
      <trkpt lat="52.296191565692425" lon="7.984997173771262">
        <ele>63.83203125</ele>
      </trkpt>
      <trkpt lat="52.296737479045987" lon="7.985683819279075">
        <ele>63.57421875</ele>
      </trkpt>
    </trkseg>
  </trk>

</gpx>